EW9935 Weather Reports


Display with metric or nautical units.
time (UTC)temp
F
wind
direction
speed
MPH
gust
MPH
rain 1hr
in
rain 24hr
in
rain mn
in
humidity
%
barometer
mb
20260503184621 76 294 0.0 0.0 0.00 0.00 0.00 63 1012.1
20260503183104 76 360 0.0 0.0 0.00 0.00 0.00 64 1012.2
20260503181550 76 296 0.0 0.0 0.00 0.00 0.00 66 1012.4
20260503180044 74 41 0.0 0.0 0.00 0.00 0.00 66 1012.5
20260503174553 74 360 0.0 0.0 0.00 0.00 0.00 66 1012.7
20260503173039 73 324 0.0 1.0 0.00 0.00 0.00 68 1012.8
20260503171513 72 360 0.0 0.0 0.00 0.00 0.00 70 1012.9
20260503090105 57 182 0.0 0.0 0.00 0.00 0.00 99 1013.0
20260503081556 60 186 0.0 0.0 0.00 0.00 0.00 95 1013.0
20260503071603 61 185 0.0 0.0 0.00 0.00 0.00 94 1012.8
20260503054551 63 360 0.0 0.0 0.00 0.00 0.00 91 1012.6
20260503053033 63 360 0.0 0.0 0.00 0.00 0.00 91 1012.6
20260503051543 64 360 0.0 0.0 0.00 0.00 0.00 91 1012.7
20260503050032 64 360 0.0 0.0 0.00 0.00 0.00 90 1012.7
20260503044534 65 360 0.0 0.0 0.00 0.00 0.00 89 1012.6
20260503043029 65 221 0.0 0.0 0.00 0.00 0.00 88 1012.6
20260503041532 66 221 0.0 0.0 0.00 0.00 0.00 88 1012.5
20260503040028 66 360 0.0 0.0 0.00 0.00 0.00 86 1012.4
20260503034528 68 360 0.0 0.0 0.00 0.00 0.00 85 1012.2
20260503033025 69 360 0.0 0.0 0.00 0.00 0.00 83 1012.0
20260503031531 70 360 0.0 0.0 0.00 0.00 0.00 81 1012.0
20260503030028 71 360 0.0 0.0 0.00 0.00 0.00 80 1011.9
20260503024525 72 185 0.0 1.0 0.00 0.00 0.00 77 1011.8
20260503023020 73 360 0.0 0.0 0.00 0.00 0.00 76 1011.9
20260503021520 73 194 0.0 0.0 0.00 0.00 0.00 76 1011.9
20260503020018 73 360 0.0 0.0 0.00 0.00 0.00 77 1012.0
20260503014517 74 185 0.0 0.0 0.00 0.00 0.00 76 1012.1
20260503013027 74 360 0.0 1.0 0.00 0.00 0.00 75 1012.1
20260503011512 76 76 0.0 0.0 0.00 0.00 0.00 72 1012.3
20260503010011 77 273 0.0 0.0 0.00 0.00 0.00 65 1012.4
20260503004509 77 360 0.0 0.0 0.00 0.00 0.00 65 1012.5
20260503003008 77 360 0.0 0.0 0.00 0.00 0.00 66 1012.5
20260503001506 77 360 0.0 1.0 0.00 0.00 0.00 65 1012.6
20260503000003 76 360 0.0 1.0 0.00 0.00 0.00 65 1012.6
20260502234502 76 360 0.0 2.0 0.00 0.00 0.00 65 1012.8
20260502233059 77 246 0.0 2.0 0.00 0.00 0.00 60 1012.9
20260502231558 77 360 0.0 2.0 0.00 0.00 0.00 61 1013.1
20260502230059 75 271 0.0 2.0 0.00 0.00 0.00 71 1013.2
20260502224551 74 360 0.0 5.0 0.00 0.00 0.00 71 1013.4
20260502223059 74 360 0.0 4.0 0.00 0.00 0.00 73 1013.6
20260502221546 74 360 0.0 2.0 0.00 0.00 0.00 76 1013.7
20260502220043 75 360 0.0 2.0 0.00 0.00 0.00 75 1013.9
20260502214541 75 360 0.0 1.0 0.00 0.00 0.00 73 1014.1
20260502213043 74 267 0.0 3.0 0.00 0.00 0.00 74 1014.3
20260502211537 73 360 0.0 1.0 0.00 0.00 0.00 74 1014.4
20260502210032 73 360 0.0 1.0 0.00 0.00 0.00 76 1014.6
20260502204530 72 360 0.0 4.0 0.00 0.00 0.00 78 1014.7
20260502203119 72 360 0.0 3.0 0.00 0.00 0.00 80 1014.8
20260502201616 72 360 0.0 4.0 0.00 0.00 0.00 81 1014.9
20260502200101 73 360 0.0 3.0 0.00 0.00 0.00 82 1014.9
20260502194559 72 360 0.0 6.0 0.00 0.00 0.00 82 1015.0
20260502193101 74 360 0.0 2.0 0.00 0.00 0.00 80 1015.0
20260502191549 73 360 0.0 1.0 0.00 0.00 0.00 71 1015.1
20260502190046 73 360 0.0 0.0 0.00 0.00 0.00 71 1015.2